Location: Christianberg
(48.9086°N, 14.0209°E)
Time: 21:02:02
(UTC+00:00)

SL-08 R/B - Pass Details

Date: 20 June 2021
Orbit: 674 x 739 km, 98.5° (Epoch: 02 August)

Event Time Altitude Azimuth Distance (km) Brightness Sun altitude
Rises 02:06:18 0° 159° (SSE) 3,035 6.3 -7.2°
Reaches altitude 10° 02:08:31 10° 157° (SSE) 2,132 5.6 -7.0°
Maximum altitude 02:13:10 75° 73° (ENE) 725 3.6 -6.4°
Drops below altitude 10° 02:17:56 10° 349° (NNW) 2,187 6.4 -5.9°
Sets 02:20:14 0° 347° (NNW) 3,121 7.2 -5.6°
